Regional Weather Roundup
Issued by NWS Little Rock, AR

Home | Current Version | Previous Version | Text Only | Print | Product List | Glossary Off
Versions: 1 2 3 4 5 6 7 8 9 10 11 12 13 14 15 16 17 18 19 20 21 22 23 24 25 26 27

000
ASUS44 KLZK 180005
RWRLZK

WEATHER ROUNDUP FOR ARKANSAS
NATIONAL WEATHER SERVICE LITTLE ROCK AR
700 PM CDT THU APR 17 2014

NOTE: "FAIR" INDICATES FEW OR NO CLOUDS BELOW 12,000 FEET WITH NO
SIGNIFICANT WEATHER AND/OR OBSTRUCTIONS TO VISIBILITY.

ARZ001-003-010-029-180100-
NORTHWEST ARKANSAS

CITY           SKY/WX    TMP DP  RH WIND       PRES   REMARKS
FAYETTEVILLE   CLOUDY    62  39  42 NW7       30.19R
6HR MIN TEMP:  62; 6HR MAX TEMP:  67;

FORT SMITH     CLOUDY    67  42  40 N5        30.17R
6HR MIN TEMP:  66; 6HR MAX TEMP:  72;

HARRISON       PTCLDY    62  33  33 NE8       30.17S
6HR MIN TEMP:  62; 6HR MAX TEMP:  69;

BENTONVILLE    CLOUDY    61  39  44 N10G17    30.22R
6HR MIN TEMP:  61; 6HR MAX TEMP:  66;

ROGERS         CLOUDY    60  40  47 N7        30.21R
6HR MIN TEMP:  60; 6HR MAX TEMP:  66;

SILOAM SPGS    CLOUDY    59  39  47 NW16      30.22R
6HR MIN TEMP:  59; 6HR MAX TEMP:  64;

HIGHFILL       CLOUDY    60  41  49 N14       30.20R
6HR MIN TEMP:  60; 6HR MAX TEMP:  68;

SPRINGDALE     MOCLDY    63  39  42 N12       30.21R
$$

ARZ004-005-016-180100-
NORTH CENTRAL ARKANSAS

CITY           SKY/WX    TMP DP  RH WIND       PRES   REMARKS
BATESVILLE     MOCLDY    66  43  42 E12       30.19S
6HR MIN TEMP:  66; 6HR MAX TEMP:  70;

FLIPPIN        PTCLDY    66  34  30 NE5       30.17S
6HR MIN TEMP:  64; 6HR MAX TEMP:  70;

MTN HOME       PTCLDY    65  31  28 E5        30.16F HAZE
6HR MIN TEMP:  64; 6HR MAX TEMP:  70;

$$

ARZ040-041-180100-
WEST CENTRAL ARKANSAS

CITY           SKY/WX    TMP DP  RH WIND       PRES   REMARKS
MENA           NOT AVBL
MOUNT IDA      CLOUDY    64  42  44 CALM      30.14S
6HR MIN TEMP:  64; 6HR MAX TEMP:  69;

$$

ARZ009-017-025-026-028-180100-
NORTHEAST ARKANSAS

CITY           SKY/WX    TMP DP  RH WIND       PRES   REMARKS
JONESBORO      PTCLDY    65  39  38 S3        30.20S
6HR MIN TEMP:  64; 6HR MAX TEMP:  67;

NEWPORT        PTCLDY    66  42  41 S5        30.21F
6HR MIN TEMP:  64; 6HR MAX TEMP:  69;

WALNUT RIDGE   PTCLDY    64  45  48 S3        30.22R
6HR MIN TEMP:  63; 6HR MAX TEMP:  66;

BLYTHEVILLE    PTCLDY    66  42  41 SE5       30.21S
6HR MIN TEMP:  64; 6HR MAX TEMP:  68;

$$

ARZ022-023-033-042-044-180100-
CENTRAL ARKANSAS

CITY           SKY/WX    TMP DP  RH WIND       PRES   REMARKS
LITTLE ROCK    MOCLDY    65  43  44 SE9       30.18S
6HR MIN TEMP:  65; 6HR MAX TEMP:  70;

N LITTLE ROCK  MOCLDY    65  44  46 SE7       30.18S
6HR MIN TEMP:  65; 6HR MAX TEMP:  68;

JACKSONVILLE   MOCLDY    66  42  41 E5        30.18F
6HR MIN TEMP:  66; 6HR MAX TEMP:  70;

SEARCY         PTCLDY    67  43  41 E7        30.20S
6HR MIN TEMP:  66; 6HR MAX TEMP:  70;

HOT SPRINGS    CLOUDY    68  38  33 E5        30.17R
6HR MIN TEMP:  66; 6HR MAX TEMP:  71;

RUSSELLVILLE   MOCLDY    66  40  38 CALM      30.16S
6HR MIN TEMP:  64; 6HR MAX TEMP:  70;

$$

ARZ036-180100-
EAST ARKANSAS

CITY           SKY/WX    TMP DP  RH WIND       PRES   REMARKS
WEST MEMPHIS   PTCLDY    66  44  45 S5        30.19R
6HR MIN TEMP:  65; 6HR MAX TEMP:  70;

$$

ARZ050-053-066-070-073-180100-
SOUTHWEST ARKANSAS

CITY           SKY/WX    TMP DP  RH WIND       PRES   REMARKS
ARKADELPHIA    FAIR      67  47  48 SE6       30.17R
6HR MIN TEMP:  67; 6HR MAX TEMP:  71; 6HR PCP: TRACE;

CAMDEN         PTCLDY    66  41  39 MISG      30.16F
TEXARKANA      MOCLDY    64  42  44 SE3       30.16R
6HR MIN TEMP:  62; 6HR MAX TEMP:  67;

EL DORADO      MOCLDY    65  48  54 E7        30.16R
6HR MIN TEMP:  64; 6HR MAX TEMP:  67;

DE QUEEN       MOCLDY    65  45  48 CALM      30.14S
6HR MIN TEMP:  64; 6HR MAX TEMP:  67;

$$

ARZ056-057-069-180100-
SOUTHEAST ARKANSAS

CITY           SKY/WX    TMP DP  RH WIND       PRES   REMARKS
PINE BLUFF     MOCLDY    64  47  53 E8        30.19S
6HR MIN TEMP:  64; 6HR MAX TEMP:  68;

STUTTGART      MOCLDY    66  45  45 SE7       30.20S
6HR MIN TEMP:  66; 6HR MAX TEMP:  70;

MONTICELLO     CLOUDY    65  47  52 E3        30.18R
6HR MIN TEMP:  65; 6HR MAX TEMP:  68; 6HR PCP: TRACE;


$$





USA.gov is the U.S. government's official web portal to all federal, state and local government web resources and services.